Weather in Osino-Gay

Russia / Tambov Oblast     53°02′01″N   42°23′56″E
temp.,
°C
wind,
m/s
gust,
m/s
humid.,
%
clouds,
%
prec.,
mm/h
press.,
hPa
HPBL,
m
13 june, sun
sun1300:00+15s379285 0.0 1009123
03:00+14s38955 0.0 1009154
06:00+15s49935 0.0 1009307
09:00+19ssw678021 0.3 1009849
12:00+22ssw687122 1.4 10091339
15:00+22ssw567099 3.7 10091163
18:00+21ssw4681100 1.8 1010607
21:00+17ssw349233 1.8 101159
14 june, mon
mon1400:00+16ssw33945 0.0 101239
03:00+15s22935 0.0 101319
06:00+17s22905 0.0 1014110
09:00+22s11759 0.0 1014554
12:00+24e2264100 0.3 10151251
15:00+24e226595 0.9 10151153
18:00+22ese2381100 1.6 1014169
21:00+18sse3391100 2.8 101552
15 june, tue
tue1500:00+16se3498100 2.1 1015110
03:00+16s1193100 2.1 101414
06:00+17s1190100 0.0 101482
09:00+20ene2278100 0.0 1014437
12:00+22e1270100 0.1 1013722
15:00+23nne346595 0.4 10111169
18:00+20ne358457 1.3 1010321
21:00+17nne359483 1.7 100976
16 june, wed
wed1600:00+16ene229720 1.6 100828
03:00+15ese11965 2.1 100811
06:00+17wnw009317 0.0 1008121
09:00+20wnw228497 0.6 1008640
12:00+22wnw337741 2.4 1008865
15:00+23nw677724 5.4 10081104
18:00+21nw598423 1.3 1009533
21:00+17nnw39945 2.1 1012274
17 june, thu
thu1700:00+16nw4109878 0.0 1012335
03:00+16n6109598 0.0 1014472
06:00+16n599454 0.0 1016521
09:00+18nne69782 0.0 1017659
12:00+21nne79695 0.0 10181085
15:00+21nne78630 0.0 10191261
18:00+20nne69740 0.0 1019710
21:00+16ne412880 0.0 1020321